Tracking 35331 objects as of 16-Sep-2026
HD Live streaming from Space Station
objects crossing your sky now

SL-8 R/B


SL-8 R/B is no longer on orbit


NORAD ID: 9625
Int'l Code: 1976-124B
Launch date: December 17, 1976
Source: Commonwealth of Independent States (former USSR) (CIS)
Launch site: PLESETSK MISSILE AND SPACE COMPLEX (PKMTR)
Decay date: 1979-09-05

Note: This is a ROCKET BODY
Your satellite tracking list
Your tracking list is empty




NASA's NSSDC Master Catalog

Two Line Element Set (TLE):
1 09625U 76124  B 79247.21888593  .03213050 +29303-4 +12056-3 0  9997
2 09625 065.8215 298.4106 0010320 290.9498 069.0586 16.28844214152561
Source of the keplerian elements: AFSPC